Regional Weather Roundup
Issued by NWS

Home | Current Version | Previous Version | Text Only | Print | Product List | Glossary On
Versions: 1 2 3 4 5 6 7 8 9 10 11 12 13 14 15 16 17 18 19 20 21 22 23 24 25 26 27 28 29 30 31 32 33 34 35 36 37 38 39 40 41 42 43 44 45 46 47 48 49 50
000
ASUS42 KFFC 021303
RWRGA
WEATHER ROUNDUP FOR GEORGIA
NATIONAL WEATHER SERVICE PEACHTREE CITY GA
900 AM EDT WED SEP 02 2015

NOTE: "FAIR" INDICATES FEW OR NO CLOUDS BELOW 12,000 FEET WITH NO
SIGNIFICANT WEATHER AND/OR OBSTRUCTIONS TO VISIBILITY.

* = USE WITH CAUTION. THE STATIONS MARKED WITH AN ASTERISK MAY NOT
REPORT WEATHER SUCH AS PRECIPITATION, FOG, OR THUNDER AND ARE NOT
QUALITY CONTROLLED BY NWS.

THE REMARK "TC" DENOTES TEMPERATURE READING IN DEGREES CELSIUS.

GAZ001>058-021400-
NORTH GEORGIA

CITY           SKY/WX    TMP DP  RH WIND       PRES   REMARKS
ATLANTA        MOSUNNY   77  69  76 CALM      30.14S
ATHENS         SUNNY     74  70  87 CALM      30.14S
CHAMBLEE       MOSUNNY   75  72  90 CALM      30.14S
PEACHTREE CITY SUNNY     73  71  93 CALM      30.14S
ROME           PTSUNNY   72  69  90 NE5       30.13R
WEST ATLANTA   MOSUNNY   74  69  85 CALM      30.14S
GAINESVILLE    SUNNY     75  68  78 CALM      30.17S
CARTERSVILLE   MOSUNNY   74  71  91 CALM      30.14S


CITY           SKY/WX    TMP DP  RH WIND       PRES   REMARKS
DALTON*        FOG       70  70 100 CALM      30.15R VSB 3/4
LAWRENCEVILLE* SUNNY     73  64  73 CALM      30.15S
MARIETTA       PTSUNNY   77  71  83 N1        30.15R
KENNESAW*      MOSUNNY   73  68  83 CALM      30.16R
BLAIRSVILLE*     N/A     68  58  71 CALM      30.20S
$$

GAZ059>098-102>109-021400-
CENTRAL GEORGIA

CITY           SKY/WX    TMP DP  RH WIND       PRES   REMARKS
AUGUSTA-BUSH   PTSUNNY   75  73  93 CALM      30.11S
AUGUSTA-DANIEL SUNNY     78  72  81 CALM      30.13S
COLUMBUS       MOSUNNY   77  71  82 CALM      30.11S
MACON          SUNNY     76  72  87 CALM      30.11S
ROBINS AFB     SUNNY     76  73  90 N1        30.10F


CITY           SKY/WX    TMP DP  RH WIND       PRES   REMARKS
LAGRANGE*      MOSUNNY   78  77  97 CALM      30.14R
SYLVANIA*      MOSUNNY   80  78  96 CALM      30.12S
MILLEDGEVILLE* SUNNY     77  72  83 CALM      30.12S
$$

GAZ099>101-110>166-021400-
SOUTH GEORGIA

CITY           SKY/WX    TMP DP  RH WIND       PRES   REMARKS
SAVANNAH       PTSUNNY   79  75  87 N6        30.11S
VALDOSTA       LGT RAIN  74  74 100 NE6       30.08S
ALMA           LGT RAIN  77  76  96 CALM      30.11S FOG
ST SIMONS      CLOUDY    81  77  88 SW3       30.09R
FT STEWART     CLOUDY    77  75  94 CALM      30.09R
ALBANY         MOSUNNY   79  73  82 NE5       30.11S
HUNTER AFB     MOSUNNY   79  79 100 CALM      30.09R
MOODY AFB      CLOUDY    74  72  94 NE6       30.08S
BRUNSWICK      CLOUDY    73  73 100 CALM      30.11R


CITY           SKY/WX    TMP DP  RH WIND       PRES   REMARKS
BAINBRIDGE*    MOSUNNY   79  73  83 NE3       30.08S
MOULTRIE*      SUNNY     77  73  88 CALM      30.10S
VIDALIA*       CLOUDY    75  73  94 CALM      30.12S FOG
WAYCROSS*      DRIZZLE   80  80  99 CALM      30.10F
DOUGLAS*       CLOUDY    77  75  94 CALM      30.11F
$$



USA.gov is the U.S. government's official web portal to all federal, state and local government web resources and services.